Погода в Федосьевке

Россия / Приморский край     46°32′08″N   134°16′19″E
темп.,
°C
ветер,
м/с
пор.,
м/с
влажн.,
%
обл.,
%
осадки,
мм/ч
давл.,
гПа
погр.,
м
17 апреля, сб
сб1701:00+6юв61364100 0.1 1008673
04:00+6ююз91383100 1.6 10081013
07:00+5ю3108299 0.1 1009484
10:00+9юз6105597 0.1 10101279
13:00+13юз6103193 0.0 10102654
16:00+13юз7828100 0.0 10102703
19:00+11юз474012 0.0 1010645
22:00+6с35715 0.0 1012114
18 апреля, вс
вс1801:00+4ссз22845 0.0 101138
04:00+3ссз23895 0.0 101150
07:00+2ссв24901 0.0 1010118
10:00+9с45584 0.0 1009623
13:00+13с56385 0.0 10071678
16:00+14ссз783742 0.0 10042162
19:00+12с610459 0.0 10041433
22:00+8ссз38610 0.0 1004245
19 апреля, пн
пн1901:00+6сз37720 0.0 1003144
04:00+5сз36741 0.0 1003115
07:00+4сз38751 0.0 1003211
10:00+10с4852100 0.0 10021056
13:00+15ссз583648 0.0 10012274
16:00+17сз6102937 0.0 9992619
19:00+16зсз593693 0.0 999665
22:00+8сз8165117 0.0 1003885
20 апреля, вт
вт2001:00+4сз815320 0.0 10071138
04:00+1сз817290 0.0 10101416
07:000зсз717310 0.0 10111491
10:00+5зсз1023240 0.0 10102896
13:00+8сз11201853 0.0 10093203
16:00+8сз915220 0.0 10102245
19:00+8сз512250 0.0 10121969
22:00+6сз613230 0.0 1015638
21 апреля, ср
ср2101:00+4зсз35270 0.0 1016100
04:00+2зюз23320 0.0 101737
07:00+2зюз24393 0.0 101969
10:00+11з24270 0.0 1019494
13:00+18зсз47215 0.0 10171832
16:00+20сз69200 0.0 10162465
19:00+18ссз35300 0.0 101790
22:00+13ссз22370 0.0 101911